Location: Oberkirch
(48.5323°N, 8.0787°E)
Time: 17:45:40
(UTC+00:00)

BREEZE-M DEB (TANK) - Pass Details

Date: 08 November 2025
Orbit: 748 x 22178 km, 51.3° (Epoch: 10 December)

Event Time Altitude Azimuth Distance (km) Brightness Sun altitude
Exits shadow 02:53:13 79° 239° (WSW) 1,668 4.4 -35.0°
Maximum altitude 02:53:36 81° 204° (SSW) 1,718 4.5 -35.0°
Drops below altitude 10° 03:17:11 10° 123° (ESE) 10,048 9.2 -31.2°
Sets 03:33:30 0° 125° (SE) 14,728 10.2 -28.5°
